Location: Lake Crest
(37.6062°N, 88.9176°W)
Time: 20:02:00
(UTC+00:00)

FALCON 9 R/B - Pass Details

Date: 15 December 2019
Orbit: 286 x 10160 km, 34.5° (Epoch: 29 January)

Event Time Altitude Azimuth Distance (km) Brightness Sun altitude
Exits shadow 10:03:38 71° 164° (SSE) 1,333 3.0 -34.7°
Drops below altitude 10° 10:20:08 10° 92° (E) 7,022 7.8 -31.4°
Sets 10:29:52 0° 92° (E) 9,918 8.9 -29.5°
